Lapse_Rate
7.5 6.5 6.5 6.5 6.5 6.5 6.5 6.5 6.5 6.5 6.5 6.5 6.5 6.5 6.5 6.8 7.2 7.0 7.2 7.5 7.9 8.2 8.8 9.2 9.3 9.4 9.5 9.5 9.4 9.3 9.4 9.3 9.6 9.7 9.5 9.5 9.5 9.7 9.9 10.0 9.6 9.6 9.0 9.7
6.5 6.5 6.5 6.5 6.5 6.5 6.5 6.5 6.5 6.5 6.5 6.5 6.5 6.5 6.5 6.5 6.7 7.2 7.3 7.5 7.7 8.1 8.5 8.8 9.0 9.2 9.4 9.3 9.2 9.3 9.3 9.2 9.4 9.6 9.7 9.6 9.5 9.8 9.8 9.9 9.6 9.7 9.5 9.5
6.5 6.5 6.5 6.5 6.5 6.5 6.5 6.5 6.5 6.5 6.5 6.5 6.5 6.5 6.5 6.5 7.0 7.3 7.7 7.8 8.0 8.1 8.3 8.4 8.6 8.9 9.3 9.2 9.1 9.2 9.2 8.7 7.5 9.1 9.6 9.5 9.6 9.6 9.6 9.6 9.6 9.6 9.5 9.5
6.5 6.8 6.5 6.5 6.6 6.5 6.5 6.5 6.5 6.5 6.5 6.5 6.5 6.5 6.5 6.6 6.5 6.6 7.1 7.4 7.9 8.1 8.4 8.2 8.4 8.7 9.2 9.2 9.4 9.3 9.2 8.8 7.3 7.2 8.9 8.7 9.0 8.8 9.2 9.4 8.2 7.1 7.2 6.9
6.5 6.5 6.5 6.5 6.5 6.4 6.5 6.5 6.5 6.5 6.5 6.5 6.5 6.5 6.5 6.5 6.5 6.5 6.9 7.3 7.8 8.1 8.4 8.6 8.4 6.8 9.2 9.1 9.2 9.3 8.9 9.2 9.1 7.7 8.1 9.0 8.2 9.1 9.3 7.1 6.3 6.0 6.1 6.3
6.5 7.3 6.5 6.4 6.6 6.6 6.5 6.5 6.5 6.5 6.5 6.5 6.4 6.5 6.5 6.5 6.5 6.5 7.0 7.5 7.7 8.0 8.3 8.5 8.7 7.1 8.9 8.3 7.7 7.8 8.2 7.9 8.0 9.0 7.4 8.3 7.8 7.8 8.1 8.7 7.7 9.1 9.5 7.9
6.5 6.5 6.6 6.9 6.5 6.5 6.4 6.5 6.5 6.5 6.5 6.6 6.5 6.5 6.4 6.5 6.5 6.5 6.6 7.4 7.9 8.1 8.3 8.4 8.5 8.4 7.2 7.9 8.8 5.5 7.2 6.4 7.8 7.6 7.5 6.5 7.2 7.0 7.7 7.0 7.3 8.9 8.7 8.3
6.5 6.5 6.5 6.5 6.5 6.6 6.5 6.5 6.5 6.5 6.5 6.5 6.5 6.5 6.5 6.5 7.0 7.3 7.4 7.5 7.7 8.0 8.3 8.5 8.6 8.8 8.8 8.0 8.8 7.8 4.4 3.6 4.5 4.4 5.6 5.3 4.2 4.6 5.6 3.9 4.8 4.7 4.9 5.8
6.4 6.4 6.5 6.5 6.5 6.5 6.5 6.5 6.5 6.5 6.5 6.5 6.5 6.5 6.5 6.5 6.5 6.8 7.2 7.3 7.5 7.8 8.2 8.4 8.6 8.7 8.7 8.7 8.8 8.0 5.9 5.6 5.4 4.4 5.6 5.4 2.8 3.3 3.8 4.1 3.3 2.6 2.6 3.9
6.5 6.5 6.5 6.5 6.7 6.7 6.5 6.5 6.5 6.4 6.5 6.5 6.5 6.5 6.5 6.5 6.5 6.5 6.6 7.2 7.5 7.9 8.1 8.3 8.6 8.7 8.9 9.0 9.0 9.2 9.1 6.8 4.5 4.1 5.7 5.6 4.4 3.8 3.4 3.8 3.1 2.4 3.2 3.6
6.5 6.5 6.6 6.5 6.5 6.5 6.6 6.5 6.5 6.5 6.5 6.5 6.5 6.5 6.5 6.5 6.5 6.5 6.8 7.3 7.6 7.8 8.0 8.3 8.6 8.7 8.8 8.9 9.0 9.0 9.0 8.3 6.3 5.5 5.4 3.6 3.4 1.9 1.1 2.6 2.9 3.7 4.4 4.8
6.4 6.5 6.5 6.5 6.5 6.5 6.4 6.6 6.5 6.5 6.5 6.5 6.5 6.5 6.5 6.5 6.5 6.9 7.0 7.4 7.8 8.0 8.1 8.3 8.5 8.6 8.7 8.6 8.8 8.9 8.2 8.5 8.4 6.3 6.0 4.8 2.8 3.1 2.9 5.5 4.7 4.5 5.4 6.0
6.5 6.5 6.5 6.5 6.5 6.5 6.5 6.5 6.5 6.5 6.6 6.5 6.5 6.5 6.5 6.6 6.6 7.1 7.0 7.5 7.7 7.9 8.1 8.3 8.4 8.3 8.3 7.1 6.7 6.8 5.8 7.5 6.5 6.3 6.2 5.5 5.4 3.2 3.6 5.6 5.8 6.4 6.3 5.8
5.6 6.6 6.5 6.5 6.5 6.5 6.5 6.6 6.5 6.5 6.5 6.5 6.5 6.5 6.5 6.5 6.5 6.8 7.2 7.5 7.8 7.8 7.9 8.1 8.1 8.4 8.5 6.9 5.7 4.7 4.5 6.4 6.2 6.5 5.7 5.9 5.0 4.9 4.9 5.4 4.6 4.6 4.6 4.0
6.5 6.5 6.5 6.5 6.5 6.5 6.5 6.5 6.5 6.5 6.5 6.5 6.5 6.5 6.5 6.5 6.5 6.9 7.4 7.5 7.6 7.8 7.9 7.7 7.9 8.3 8.1 6.4 4.5 4.0 3.8 3.8 4.3 4.4 4.2 4.2 3.7 4.0 3.5 3.4 3.4 4.0 4.1 4.8
6.5 6.5 6.5 6.5 6.5 6.5 6.5 6.5 6.5 6.5 6.5 6.5 6.5 6.5 6.6 7.0 7.4 7.2 7.3 7.5 7.4 7.6 7.9 7.9 8.2 8.2 8.3 7.7 6.2 5.3 4.3 3.8 3.5 3.5 3.5 3.4 3.4 3.4 3.7 4.1 4.3 4.6 5.7 5.6
6.5 6.5 6.5 6.5 6.5 6.5 6.5 6.5 6.6 6.5 6.5 6.5 6.5 6.5 6.5 6.5 6.7 7.0 7.3 7.5 7.6 7.7 8.0 8.2 8.2 8.4 8.5 8.3 7.0 6.5 5.8 5.0 4.7 4.5 4.5 4.4 4.3 3.9 4.7 5.3 5.8 6.0 6.3 6.5
6.5 6.5 6.4 6.5 6.5 6.4 6.5 6.5 6.5 6.6 6.5 6.5 6.5 6.5 6.6 6.9 7.3 7.8 7.9 7.7 7.8 7.9 8.0 8.2 8.4 8.5 8.8 8.7 8.6 7.4 7.5 6.8 7.0 6.7 6.7 6.1 6.0 5.6 5.4 5.9 6.4 7.3 7.4 8.0
6.6 6.5 6.5 6.5 6.5 6.5 6.5 6.5 6.6 6.5 6.5 6.5 6.5 6.5 6.9 7.3 7.5 7.2 8.0 8.2 8.2 8.2 8.5 8.5 8.7 8.9 8.8 8.6 8.9 8.2 7.7 8.1 8.3 7.1 6.5 6.0 6.6 6.3 6.5 7.4 6.6 7.9 8.8 9.1
6.5 6.5 6.5 6.5 6.5 6.5 6.5 6.5 7.2 6.7 6.5 6.7 6.9 6.6 7.0 7.2 6.5 6.5 8.0 8.3 8.4 8.6 8.7 8.4 8.8 8.7 8.6 8.8 8.6 8.7 8.5 8.1 7.0 7.9 7.9 8.0 7.7 7.1 7.0 7.5 7.5 9.0 9.3 9.3
6.4 6.5 6.5 6.5 6.5 6.5 6.5 6.8 7.3 6.5 6.5 7.1 7.3 7.1 7.2 6.6 7.2 7.8 8.3 8.4 8.6 8.6 8.6 8.8 8.8 8.4 8.7 8.8 8.6 8.2 8.4 7.6 8.0 8.2 8.3 8.1 7.5 7.2 7.6 8.3 9.0 9.1 9.1 9.2
6.5 6.5 6.5 6.5 6.5 6.5 7.0 6.9 6.5 6.7 7.3 7.5 7.6 7.6 7.4 7.6 7.9 8.1 8.2 8.2 8.4 8.4 8.6 8.5 7.9 8.5 7.9 8.9 8.6 7.9 7.7 8.9 9.0 8.9 8.9 8.8 8.9 9.4 9.4 9.0 9.1 9.1 9.0 8.9
6.5 6.5 6.5 6.5 6.5 6.7 7.4 7.1 7.7 7.9 7.4 7.7 7.6 8.0 7.9 7.8 7.9 8.1 8.0 8.2 8.4 8.5 8.5 8.4 8.1 8.5 8.0 7.4 8.1 8.6 8.1 9.0 9.1 9.1 9.0 9.0 9.2 9.3 9.2 9.0 8.9 9.2 9.0 9.0
6.5 6.9 6.5 6.5 6.5 6.7 7.3 7.8 7.9 8.0 7.9 8.2 8.2 8.2 8.2 7.9 8.0 8.1 8.2 8.3 8.4 8.6 8.3 8.4 8.7 8.5 7.6 8.6 9.0 8.9 9.0 9.2 9.1 8.9 9.0 9.2 9.0 9.2 9.3 9.6 9.5 9.3 9.2 9.1
6.7 6.7 6.5 6.5 6.6 7.1 7.5 7.8 7.9 7.9 8.1 8.2 8.4 8.4 8.2 8.2 8.1 8.2 8.1 8.2 8.3 8.3 8.6 8.7 8.5 8.3 8.3 8.6 8.9 9.2 9.2 9.3 9.1 9.1 9.1 9.2 9.4 9.2 9.2 9.3 9.4 9.4 9.2 8.2
7.0 6.5 6.5 6.5 6.9 7.0 7.1 7.8 8.2 7.9 8.0 8.2 8.2 8.2 8.4 8.5 8.2 8.3 8.3 8.4 8.2 6.5 8.6 8.6 8.7 8.6 8.1 8.5 8.9 9.1 9.2 9.2 9.1 9.1 9.2 9.3 9.4 9.2 9.3 9.3 9.2 6.3 4.0 4.8
Wind_Speed
18 5 8 7 9 7 8 1 12 7 1 5 8 10 10 10 9 11 13 15 15 15 16 17 17 16 15 15 14 14 13 9 9 10 10 10 9 9 9 8 10 5 8 11
10 7 13 4 6 8 3 19 17 8 1 5 7 10 7 6 10 10 14 16 16 16 16 18 19 18 17 17 16 15 14 12 11 10 9 9 9 9 9 8 11 11 10 11
10 9 6 3 3 5 16 7 9 11 9 7 6 16 10 7 2 4 8 10 15 18 18 18 19 19 18 17 18 17 15 15 14 13 9 8 7 7 7 7 8 9 12 7
2 6 2 3 2 9 9 7 9 11 11 4 7 6 12 22 9 3 5 7 11 16 18 16 18 20 20 19 18 18 17 16 15 14 12 11 9 8 8 7 2 8 4 4
14 6 6 8 8 5 9 7 9 9 14 14 14 7 7 18 11 7 4 1 7 12 16 19 20 14 20 19 17 18 17 16 15 16 14 11 10 7 7 6 8 6 5 6
7 4 5 8 0 3 7 13 14 12 13 6 10 8 12 13 12 13 15 12 6 10 12 14 16 15 18 11 7 11 16 14 14 14 15 11 12 11 1 4 5 5 5 6
10 13 7 5 9 3 11 16 7 7 7 8 10 7 10 12 11 10 9 11 12 9 8 10 13 12 14 14 16 4 12 12 13 7 9 10 5 1 0 5 4 2 3 2
5 4 8 9 8 11 12 10 7 8 9 11 5 1 3 7 7 5 7 5 3 6 5 8 9 13 12 16 14 10 8 8 7 6 11 4 6 5 4 6 6 3 3 3
6 3 4 4 5 6 4 8 14 10 14 11 4 6 8 9 7 10 13 11 9 4 5 6 4 4 2 4 8 12 11 14 13 7 9 11 10 13 6 6 4 4 2 4
11 8 5 12 4 13 11 12 12 6 7 8 8 11 2 8 12 12 12 16 7 3 3 2 3 4 4 6 9 13 16 12 15 14 13 11 12 12 8 5 5 6 7 8
14 11 5 4 13 8 4 12 8 11 6 10 11 7 10 10 10 12 14 13 11 7 1 3 3 1 3 4 5 6 12 14 15 14 16 19 17 16 18 16 14 10 7 8
8 10 12 16 3 6 10 14 14 10 11 11 11 14 4 1 8 9 14 10 8 7 2 1 3 5 6 4 6 9 9 14 16 17 17 17 13 16 13 10 9 8 8 10
9 7 11 14 14 10 7 11 11 11 15 16 12 11 9 13 13 13 9 13 11 1 1 4 5 5 1 1 4 5 1 6 14 16 16 13 12 11 12 10 11 12 12 9
4 15 17 14 18 16 12 13 14 15 11 15 15 18 16 18 16 13 14 11 10 3 2 5 4 4 3 1 1 2 5 4 8 13 12 13 11 10 9 7 6 7 8 9
10 16 16 17 18 16 19 17 17 17 17 18 20 21 20 15 9 10 9 10 6 3 4 5 6 5 4 2 1 2 1 4 6 7 7 6 6 8 6 5 7 8 8 7
13 16 13 19 20 18 21 21 20 20 19 20 21 20 14 11 13 12 13 10 9 5 5 7 6 7 6 5 4 5 5 5 6 8 8 8 8 8 7 7 8 8 10 8
15 14 14 19 20 19 17 16 16 13 11 11 15 17 16 12 12 12 11 9 6 6 7 10 8 7 6 7 7 6 7 7 6 7 8 9 11 10 9 8 9 8 9 8
14 14 12 14 16 19 19 6 5 9 12 12 14 11 11 10 6 12 11 6 4 4 6 6 7 8 8 7 7 8 8 7 6 8 7 7 9 10 9 9 10 11 9 10
15 11 12 14 14 16 17 4 7 8 11 16 15 8 8 10 11 3 7 3 4 8 6 9 9 10 9 7 6 7 9 8 8 9 8 9 8 8 8 9 8 9 10 10
10 11 10 13 16 18 8 5 4 6 14 8 6 7 11 12 11 5 2 6 8 7 6 9 12 11 11 9 10 9 8 8 8 8 11 11 10 10 10 11 10 9 9 9
9 10 13 12 14 16 13 9 3 7 4 6 8 8 12 10 11 11 12 11 9 6 6 8 11 10 11 11 10 9 9 7 8 9 10 10 8 8 9 9 8 8 8 8
14 12 12 13 16 20 7 1 7 7 9 11 14 12 12 12 14 13 7 11 8 6 6 8 7 9 8 12 10 11 10 11 11 12 11 11 10 8 8 9 8 8 7 6
15 15 12 15 8 3 1 7 10 9 10 14 13 12 10 12 13 12 6 9 8 7 6 6 9 10 11 11 11 11 10 10 10 10 9 9 10 8 10 10 9 8 8 8
14 12 13 12 13 15 14 8 9 11 15 14 12 11 11 13 14 13 9 8 7 6 7 9 10 11 11 12 12 12 13 11 10 10 9 8 9 9 8 8 8 8 9 10
13 6 8 12 15 16 15 15 10 12 11 11 11 12 11 11 12 12 6 5 4 3 7 8 10 10 12 12 13 12 12 12 11 10 10 10 9 10 10 9 9 10 10 6
12 13 11 12 11 12 13 11 12 12 13 12 14 12 10 12 9 7 6 6 5 8 10 9 8 9 11 13 13 12 13 14 13 12 10 10 10 12 9 9 8 10 10 7
Wind_Direction
248 21 253 269 5 348 14 321 21 290 142 289 262 259 261 204 191 206 199 190 198 205 197 192 191 190 183 175 175 180 192 190 182 195 200 198 207 202 211 207 204 208 236 193
349 177 252 27 14 305 258 36 278 59 70 304 294 321 275 219 205 217 209 194 196 201 209 194 190 195 197 183 181 180 187 183 197 202 206 211 207 204 212 204 181 209 220 234
201 59 64 326 232 70 325 11 4 331 312 261 284 354 153 132 293 202 248 239 202 199 201 195 193 198 198 198 186 190 190 182 190 207 203 212 241 251 219 224 189 185 217 221
312 78 328 282 243 307 165 5 321 329 305 174 236 169 25 322 137 162 244 253 251 212 205 197 196 196 206 202 194 193 191 190 191 200 191 204 206 223 231 232 106 86 95 83
268 161 230 259 34 331 28 325 299 291 280 93 266 311 180 218 36 54 73 239 259 252 224 209 188 201 205 207 203 195 188 197 198 192 216 188 222 212 240 112 110 104 113 108
223 156 250 18 341 288 313 273 253 239 247 120 56 339 92 56 36 27 16 360 2 305 243 236 212 175 208 180 200 196 181 185 203 197 203 211 186 230 177 141 166 183 162 160
210 188 130 279 269 219 236 286 268 245 220 66 48 313 19 54 52 42 20 9 0 341 275 239 242 228 175 195 201 37 159 170 199 238 187 202 190 131 227 187 231 250 198 196
207 273 214 148 295 344 306 344 305 313 323 346 264 278 38 82 115 106 27 56 15 345 284 268 232 220 216 153 178 180 134 124 146 171 244 117 105 81 80 85 53 18 26 47
312 85 95 267 266 256 305 260 1 306 267 288 320 23 300 103 180 19 8 348 5 48 339 313 273 20 260 237 197 163 165 185 190 142 163 140 120 106 117 114 176 214 147 154
308 309 293 115 274 246 260 325 296 259 286 293 326 312 314 3 347 5 333 328 13 33 325 265 251 233 226 246 197 207 191 179 164 156 151 138 124 125 155 221 220 236 234 187
294 291 266 197 238 266 217 238 202 256 306 288 283 303 13 29 350 324 320 332 12 350 319 254 228 257 281 300 300 235 193 178 179 166 148 148 164 163 187 206 190 206 211 183
306 309 303 300 287 240 282 285 293 292 293 289 309 301 45 210 313 327 323 16 7 358 69 202 247 251 215 243 244 232 197 191 194 167 160 172 183 189 196 200 196 188 198 187
311 263 279 271 242 181 245 272 268 282 294 279 278 283 345 350 335 329 349 357 335 17 196 234 230 238 14 185 275 240 227 210 163 172 174 183 195 193 192 193 172 184 185 161
309 270 273 281 307 318 295 286 281 275 267 285 289 303 315 323 324 345 350 345 337 136 271 243 229 270 278 104 240 3 72 204 194 191 179 183 179 185 176 152 133 146 163 167
248 267 283 289 294 290 288 281 281 279 283 285 298 302 308 323 354 316 335 357 328 233 245 235 228 228 248 247 180 111 63 91 124 119 127 137 131 132 128 137 141 155 169 174
256 263 267 274 276 274 274 273 273 272 273 276 285 288 298 357 350 351 341 344 306 220 213 223 203 216 218 198 190 199 181 146 120 118 124 127 123 130 154 160 158 162 173 180
281 288 288 279 291 293 278 266 269 285 287 305 305 321 333 354 359 336 312 313 313 316 181 216 214 218 215 189 181 172 168 141 155 147 153 153 151 154 161 161 159 177 181 166
258 256 269 273 280 270 275 19 302 284 295 295 316 333 357 338 340 311 293 323 315 288 193 220 210 212 224 191 188 168 156 159 175 140 152 136 157 149 154 171 176 180 182 179
251 264 268 263 256 274 281 297 344 354 313 311 297 350 317 343 328 295 70 52 321 311 276 181 198 211 207 187 180 160 165 157 153 147 159 159 174 149 167 161 178 197 175 176
263 246 256 259 268 274 297 87 76 336 292 51 5 344 333 335 300 26 9 293 305 303 263 159 176 195 194 183 173 193 180 170 171 176 174 170 161 167 163 191 183 178 173 179
222 236 251 249 257 269 283 97 101 268 344 345 327 321 324 318 319 314 313 288 292 292 227 186 177 193 186 184 180 180 179 183 175 168 184 163 163 189 176 169 172 175 191 171
268 249 247 244 261 268 38 116 247 349 329 316 317 317 309 319 309 298 285 278 287 270 216 166 183 192 174 173 180 187 197 183 171 173 171 167 167 181 162 175 181 187 194 205
247 251 279 291 307 115 126 279 284 291 305 299 297 295 314 304 303 300 287 301 282 268 179 202 179 182 181 182 190 185 200 172 172 178 173 172 175 194 164 185 189 197 198 241
257 249 260 270 282 291 297 296 307 296 293 292 284 305 299 301 304 294 278 290 280 245 191 193 194 186 192 197 189 190 190 176 181 182 178 182 187 194 199 194 200 218 223 210
284 312 291 280 273 272 274 282 308 304 306 289 280 271 292 306 302 296 256 263 274 250 254 203 206 184 202 186 202 189 171 182 187 186 186 189 199 196 196 228 221 218 225 255
273 280 274 279 286 302 303 302 304 297 296 286 290 287 293 300 291 275 243 223 243 232 226 217 208 180 197 198 195 196 175 187 193 191 197 204 215 181 210 213 213 237 263 269